{"data":{"norad_id":68092,"epoch":"2026-09-19T14:42:51.734592Z","epoch_age_seconds":132101,"freshness":"FRESH","line1":"1 68092U 26042Z   26262.61309878  .00038610  00000+0  11470-2 0  9991","line2":"2 68092  53.1596 353.8589 0001427  90.6969 269.4197 15.34426949 32044","mean_motion":15.34426949,"eccentricity":0.0001427,"inclination_deg":53.1596,"raan_deg":353.8589,"arg_perigee_deg":90.6969,"mean_anomaly_deg":269.4197,"bstar":0.001147,"rev_number":3204,"period_min":93.846109841753,"perigee_km":461.64696679971,"apogee_km":463.59931974461,"semimajor_km":6840.7601432722,"source":"CELESTRAK","updated_at":"2026-09-20T09:00:43.782818Z"}}